OE3JSI-13 Weather Reports


time (UTC)temp
C
wind
direction
speed
KPH
gust
KPH
rain 1hr
cm
rain 24hr
cm
rain mn
cm
humidity
%
barometer
mb
20260506175522 23 0.0 0.0 0.00 0.00 0.00 49 1004.4
20260506174517 23 0.0 0.0 0.00 0.00 0.00 48 1004.3
20260506173511 23 0.0 0.0 0.00 0.00 0.00 48 1005.0
20260506172506 24 0.0 0.0 0.00 0.00 0.00 48 1005.0
20260506171501 24 0.0 0.0 0.00 0.00 0.00 48 1005.0
20260506170456 23 0.0 0.0 0.00 0.00 0.00 48 1004.4
20260506165449 24 0.0 0.0 0.00 0.00 0.00 48 1005.4
20260506164444 24 0.0 0.0 0.00 0.00 0.00 47 1004.5
20260506163438 25 0.0 0.0 0.00 0.00 0.00 47 1005.1
20260506162433 24 0.0 0.0 0.00 0.00 0.00 47 1004.6
20260506161428 25 0.0 0.0 0.00 0.00 0.00 46 1005.5
20260506160422 25 0.0 0.0 0.00 0.00 0.00 46 1004.7
20260506155417 26 0.0 0.0 0.00 0.00 0.00 45 1005.5
20260506154412 26 0.0 0.0 0.00 0.00 0.00 42 1005.6
20260506153406 26 0.0 0.0 0.00 0.00 0.00 39 1005.4
20260506152401 26 0.0 0.0 0.00 0.00 0.00 39 1005.5
20260506151356 26 0.0 0.0 0.00 0.00 0.00 39 1004.8
20260506150350 26 0.0 0.0 0.00 0.00 0.00 39 1005.4
20260506145345 27 0.0 0.0 0.00 0.00 0.00 39 1005.4
20260506144340 27 0.0 0.0 0.00 0.00 0.00 39 1005.4
20260506143334 27 0.0 0.0 0.00 0.00 0.00 39 1005.4
20260506142329 26 0.0 0.0 0.00 0.00 0.00 42 1004.9
20260506141324 26 0.0 0.0 0.00 0.00 0.00 42 1005.6
20260506140318 26 0.0 0.0 0.00 0.00 0.00 42 1005.5
20260506135313 26 0.0 0.0 0.00 0.00 0.00 43 1005.6
20260506134308 26 0.0 0.0 0.00 0.00 0.00 42 1005.1
20260506133302 26 0.0 0.0 0.00 0.00 0.00 43 1005.2
20260506132257 26 0.0 0.0 0.00 0.00 0.00 41 1006.0
20260506131252 26 0.0 0.0 0.00 0.00 0.00 42 1006.1
20260506130246 26 0.0 0.0 0.00 0.00 0.00 43 1006.2
20260506125241 25 0.0 0.0 0.00 0.00 0.00 43 1005.8
20260506124236 25 0.0 0.0 0.00 0.00 0.00 44 1005.8
20260506123230 25 0.0 0.0 0.00 0.00 0.00 44 1006.8
20260506122225 25 0.0 0.0 0.00 0.00 0.00 45 1007.0
20260506121220 24 0.0 0.0 0.00 0.00 0.00 45 1006.3
20260506120214 25 0.0 0.0 0.00 0.00 0.00 46 1007.2
20260506115209 24 0.0 0.0 0.00 0.00 0.00 46 1007.1
20260506114204 25 0.0 0.0 0.00 0.00 0.00 45 1007.5
20260506113158 25 0.0 0.0 0.00 0.00 0.00 46 1007.5
20260506112153 25 0.0 0.0 0.00 0.00 0.00 46 1007.8
20260506111147 25 0.0 0.0 0.00 0.00 0.00 47 1008.1
20260506110143 25 0.0 0.0 0.00 0.00 0.00 47 1008.0
20260506105137 25 0.0 0.0 0.00 0.00 0.00 49 1008.3
20260506104131 24 0.0 0.0 0.00 0.00 0.00 49 1008.5
20260506103126 25 0.0 0.0 0.00 0.00 0.00 49 1008.9
20260506102121 25 0.0 0.0 0.00 0.00 0.00 49 1008.7
20260506101115 25 0.0 0.0 0.00 0.00 0.00 48 1008.7
20260506100110 24 0.0 0.0 0.00 0.00 0.00 47 1008.1
20260506095105 24 0.0 0.0 0.00 0.00 0.00 48 1008.4
20260506094059 24 0.0 0.0 0.00 0.00 0.00 48 1008.5
20260506093054 24 0.0 0.0 0.00 0.00 0.00 48 1009.4
20260506092049 23 0.0 0.0 0.00 0.00 0.00 50 1009.5
20260506091043 23 0.0 0.0 0.00 0.00 0.00 49 1009.6
20260506090038 23 0.0 0.0 0.00 0.00 0.00 48 1008.9
20260506085033 23 0.0 0.0 0.00 0.00 0.00 50 1009.5
20260506084027 22 0.0 0.0 0.00 0.00 0.00 52 1009.6
20260506083022 22 0.0 0.0 0.00 0.00 0.00 51 1009.8
20260506082017 22 0.0 0.0 0.00 0.00 0.00 51 1009.9
20260506081011 22 0.0 0.0 0.00 0.00 0.00 51 1010.0
20260506072950 21 0.0 0.0 0.00 0.00 0.00 53 1009.6
20260506071945 22 0.0 0.0 0.00 0.00 0.00 55 1010.4
20260506070939 21 0.0 0.0 0.00 0.00 0.00 56 1010.5
20260506061913 21 0.0 0.0 0.00 0.00 0.00 59 1011.1
20260506060907 20 0.0 0.0 0.00 0.00 0.00 60 1011.0
20260506050835 18 0.0 0.0 0.00 0.00 0.00 64 1011.3
20260506044824 18 0.0 0.0 0.00 0.00 0.00 65 1011.0
20260506043819 18 0.0 0.0 0.00 0.00 0.00 65 1010.8
20260506042814 18 0.0 0.0 0.00 0.00 0.00 65 1010.7
20260506041808 18 0.0 0.0 0.00 0.00 0.00 65 1010.8
20260506040803 18 0.0 0.0 0.00 0.00 0.00 65 1010.7
20260506035758 18 0.0 0.0 0.00 0.00 0.00 65 1009.7
20260506034752 18 0.0 0.0 0.00 0.00 0.00 65 1009.6
20260506033747 18 0.0 0.0 0.00 0.00 0.00 65 1010.5
20260506032742 18 0.0 0.0 0.00 0.00 0.00 65 1010.5
20260506031736 18 0.0 0.0 0.00 0.00 0.00 65 1010.3
20260506030731 18 0.0 0.0 0.00 0.00 0.00 65 1010.4
20260506025726 18 0.0 0.0 0.00 0.00 0.00 65 1010.3
20260506024720 18 0.0 0.0 0.00 0.00 0.00 65 1010.4
20260506023715 18 0.0 0.0 0.00 0.00 0.00 65 1010.5
20260506022710 18 0.0 0.0 0.00 0.00 0.00 65 1009.7
20260506021704 18 0.0 0.0 0.00 0.00 0.00 65 1009.5
20260506020659 19 0.0 0.0 0.00 0.00 0.00 65 1010.3
20260506015654 19 0.0 0.0 0.00 0.00 0.00 65 1010.2
20260506014648 19 0.0 0.0 0.00 0.00 0.00 64 1010.0
20260506013643 19 0.0 0.0 0.00 0.00 0.00 64 1010.2
20260506012638 19 0.0 0.0 0.00 0.00 0.00 65 1010.2
20260506011632 19 0.0 0.0 0.00 0.00 0.00 64 1009.8
20260506010627 19 0.0 0.0 0.00 0.00 0.00 63 1008.9
20260506005622 20 0.0 0.0 0.00 0.00 0.00 63 1009.7
20260506004616 19 0.0 0.0 0.00 0.00 0.00 63 1008.9
20260506003611 20 0.0 0.0 0.00 0.00 0.00 62 1009.7
20260506002606 20 0.0 0.0 0.00 0.00 0.00 61 1008.7
20260506001600 20 0.0 0.0 0.00 0.00 0.00 61 1009.5
20260506000555 20 0.0 0.0 0.00 0.00 0.00 60 1008.4
20260505235550 20 0.0 0.0 0.00 0.00 0.00 59 1009.1
20260505234544 20 0.0 0.0 0.00 0.00 0.00 59 1008.7
20260505233539 20 0.0 0.0 0.00 0.00 0.00 59 1008.7
20260505232534 20 0.0 0.0 0.00 0.00 0.00 58 1008.4
20260505231528 21 0.0 0.0 0.00 0.00 0.00 57 1008.6
20260505230523 21 0.0 0.0 0.00 0.00 0.00 57 1008.6
20260505225518 21 0.0 0.0 0.00 0.00 0.00 57 1008.4
20260505224512 21 0.0 0.0 0.00 0.00 0.00 57 1008.2
20260505223507 20 0.0 0.0 0.00 0.00 0.00 57 1007.2
20260505222502 20 0.0 0.0 0.00 0.00 0.00 57 1007.8
20260505221456 21 0.0 0.0 0.00 0.00 0.00 56 1007.9
20260505220451 20 0.0 0.0 0.00 0.00 0.00 56 1006.8
20260505215445 21 0.0 0.0 0.00 0.00 0.00 56 1007.7
20260505214440 20 0.0 0.0 0.00 0.00 0.00 56 1006.7
20260505213435 21 0.0 0.0 0.00 0.00 0.00 56 1007.4
20260505212430 20 0.0 0.0 0.00 0.00 0.00 56 1006.6
20260505211424 20 0.0 0.0 0.00 0.00 0.00 55 1007.2
20260505210419 20 0.0 0.0 0.00 0.00 0.00 53 1007.2
20260505205413 20 0.0 0.0 0.00 0.00 0.00 53 1007.0
20260505204408 20 0.0 0.0 0.00 0.00 0.00 52 1006.9
20260505203403 20 0.0 0.0 0.00 0.00 0.00 51 1005.9
20260505202357 21 0.0 0.0 0.00 0.00 0.00 50 1006.7
20260505201352 22 0.0 0.0 0.00 0.00 0.00 49 1006.2
20260505200347 22 0.0 0.0 0.00 0.00 0.00 49 1006.1
20260505195341 21 0.0 0.0 0.00 0.00 0.00 49 1005.9
20260505194336 21 0.0 0.0 0.00 0.00 0.00 48 1005.0
20260505193331 22 0.0 0.0 0.00 0.00 0.00 48 1005.7
20260505192325 22 0.0 0.0 0.00 0.00 0.00 48 1005.9
20260505191320 22 0.0 0.0 0.00 0.00 0.00 48 1005.7
20260505190315 22 0.0 0.0 0.00 0.00 0.00 48 1004.8
20260505185309 22 0.0 0.0 0.00 0.00 0.00 48 1005.5
20260505184304 22 0.0 0.0 0.00 0.00 0.00 47 1005.5
20260505183259 22 0.0 0.0 0.00 0.00 0.00 47 1005.5
20260505182253 23 0.0 0.0 0.00 0.00 0.00 47 1005.3
20260505181248 23 0.0 0.0 0.00 0.00 0.00 46 1005.2